Year,Month,Day,Hour,Minute,Value (Times are PST for windgust in km/hr)
2013,09,30,00,00,35.40
2013,09,30,00,01,19.30
2013,09,30,00,02,29.00
2013,09,30,00,03,25.70
2013,09,30,00,04,24.20
2013,09,30,00,05,27.40
2013,09,30,00,06,32.20
2013,09,30,00,07,30.60
2013,09,30,00,08,27.40
2013,09,30,00,09,32.20
2013,09,30,00,10,27.40
2013,09,30,00,11,29.00
2013,09,30,00,12,35.40
2013,09,30,00,13,20.90
2013,09,30,00,14,27.40
2013,09,30,00,15,35.40
2013,09,30,00,16,32.20
2013,09,30,00,17,35.40
2013,09,30,00,18,22.50
2013,09,30,00,19,20.90
2013,09,30,00,20,30.60
2013,09,30,00,21,24.20
2013,09,30,00,22,33.80
2013,09,30,00,23,35.40
2013,09,30,00,24,25.70
2013,09,30,00,25,30.60
2013,09,30,00,26,37.00
2013,09,30,00,27,22.50
2013,09,30,00,28,32.20
2013,09,30,00,29,35.40
2013,09,30,00,30,37.00
2013,09,30,00,31,32.20
2013,09,30,00,32,37.00
2013,09,30,00,33,33.80
2013,09,30,00,34,25.70
2013,09,30,00,35,33.80
2013,09,30,00,36,33.80
2013,09,30,00,37,29.00
2013,09,30,00,38,37.00
2013,09,30,00,39,49.90
2013,09,30,00,40,37.00
2013,09,30,00,41,32.20
2013,09,30,00,42,40.20
2013,09,30,00,43,27.40
2013,09,30,00,44,37.00
2013,09,30,00,45,29.00
2013,09,30,00,46,30.60
2013,09,30,00,47,27.40
2013,09,30,00,48,19.30
2013,09,30,00,49,32.20
2013,09,30,00,50,30.60
2013,09,30,00,51,40.20
2013,09,30,00,52,33.80
2013,09,30,00,53,33.80
2013,09,30,00,54,37.00
2013,09,30,00,55,30.60
2013,09,30,00,56,30.60
2013,09,30,00,57,30.60
2013,09,30,00,58,32.20
2013,09,30,00,59,41.80
2013,09,30,01,00,35.40
2013,09,30,01,01,33.80
2013,09,30,01,02,40.20
2013,09,30,01,03,32.20
2013,09,30,01,04,33.80
2013,09,30,01,05,35.40
2013,09,30,01,06,35.40
2013,09,30,01,07,32.20
2013,09,30,01,08,27.40
2013,09,30,01,09,33.80
2013,09,30,01,10,29.00
2013,09,30,01,11,32.20
2013,09,30,01,12,27.40
2013,09,30,01,13,33.80
2013,09,30,01,14,33.80
2013,09,30,01,15,25.70
2013,09,30,01,16,24.20
2013,09,30,01,17,30.60
2013,09,30,01,18,30.60
2013,09,30,01,19,29.00
2013,09,30,01,20,29.00
2013,09,30,01,21,29.00
2013,09,30,01,22,32.20
2013,09,30,01,23,17.70
2013,09,30,01,24,24.20
2013,09,30,01,25,30.60
2013,09,30,01,26,19.30
2013,09,30,01,27,25.70
2013,09,30,01,28,27.40
2013,09,30,01,29,30.60
2013,09,30,01,30,25.70
2013,09,30,01,31,17.70
2013,09,30,01,32,20.90
2013,09,30,01,33,16.10
2013,09,30,01,34,25.70
2013,09,30,01,35,25.70
2013,09,30,01,36,24.20
2013,09,30,01,37,24.20
2013,09,30,01,38,24.20
2013,09,30,01,39,16.10
2013,09,30,01,40,16.10
2013,09,30,01,41,22.50
2013,09,30,01,42,19.30
2013,09,30,01,43,17.70
2013,09,30,01,44,20.90
2013,09,30,01,45,27.40
2013,09,30,01,46,29.00
2013,09,30,01,47,22.50
2013,09,30,01,48,20.90
2013,09,30,01,49,19.30
2013,09,30,01,50,17.70
2013,09,30,01,51,17.70
2013,09,30,01,52,19.30
2013,09,30,01,53,19.30
2013,09,30,01,54,14.50
2013,09,30,01,55,12.90
2013,09,30,01,56,19.30
2013,09,30,01,57,20.90
2013,09,30,01,58,17.70
2013,09,30,01,59,12.90
2013,09,30,02,00,17.70
2013,09,30,02,01,17.70
2013,09,30,02,02,14.50
2013,09,30,02,03,12.90
2013,09,30,02,04,17.70
2013,09,30,02,05,16.10
2013,09,30,02,06,14.50
2013,09,30,02,07,16.10
2013,09,30,02,08,14.50
2013,09,30,02,09,14.50
2013,09,30,02,10,19.30
2013,09,30,02,11,14.50
2013,09,30,02,12,16.10
2013,09,30,02,13,14.50
2013,09,30,02,14,16.10
2013,09,30,02,15,11.30
2013,09,30,02,16,14.50
2013,09,30,02,17,12.90
2013,09,30,02,18,11.30
2013,09,30,02,19,9.60
2013,09,30,02,20,12.90
2013,09,30,02,21,12.90
2013,09,30,02,22,9.60
2013,09,30,02,23,11.30
2013,09,30,02,24,11.30
2013,09,30,02,25,9.60
2013,09,30,02,26,11.30
2013,09,30,02,27,9.60
2013,09,30,02,28,12.90
2013,09,30,02,29,11.30
2013,09,30,02,30,9.60
2013,09,30,02,31,16.10
2013,09,30,02,32,14.50
2013,09,30,02,33,16.10
2013,09,30,02,34,16.10
2013,09,30,02,35,12.90
2013,09,30,02,36,12.90
2013,09,30,02,37,14.50
2013,09,30,02,38,19.30
2013,09,30,02,39,16.10
2013,09,30,02,40,14.50
2013,09,30,02,41,16.10
2013,09,30,02,42,9.60
2013,09,30,02,43,11.30
2013,09,30,02,44,11.30
2013,09,30,02,45,11.30
2013,09,30,02,46,11.30
2013,09,30,02,47,11.30
2013,09,30,02,48,12.90
2013,09,30,02,49,11.30
2013,09,30,02,50,11.30
2013,09,30,02,51,12.90
2013,09,30,02,52,9.60
2013,09,30,02,53,11.30
2013,09,30,02,54,12.90
2013,09,30,02,55,6.40
2013,09,30,02,56,11.30
2013,09,30,02,57,9.60
2013,09,30,02,58,9.60
2013,09,30,02,59,8.10
2013,09,30,03,00,8.10
2013,09,30,03,01,9.60
2013,09,30,03,02,14.50
2013,09,30,03,03,14.50
2013,09,30,03,04,11.30
2013,09,30,03,05,16.10
2013,09,30,03,06,17.70
2013,09,30,03,07,14.50
2013,09,30,03,08,14.50
2013,09,30,03,09,8.10
2013,09,30,03,10,9.60
2013,09,30,03,11,16.10
2013,09,30,03,12,12.90
2013,09,30,03,13,14.50
2013,09,30,03,14,11.30
2013,09,30,03,15,12.90
2013,09,30,03,16,8.10
2013,09,30,03,17,12.90
2013,09,30,03,18,4.80
2013,09,30,03,19,9.60
2013,09,30,03,20,9.60
2013,09,30,03,21,19.30
2013,09,30,03,22,16.10
2013,09,30,03,23,19.30
2013,09,30,03,24,17.70
2013,09,30,03,25,17.70
2013,09,30,03,26,16.10
2013,09,30,03,27,11.30
2013,09,30,03,28,11.30
2013,09,30,03,29,9.60
2013,09,30,03,30,14.50
2013,09,30,03,31,16.10
2013,09,30,03,32,16.10
2013,09,30,03,33,16.10
2013,09,30,03,34,16.10
2013,09,30,03,35,16.10
2013,09,30,03,36,12.90
2013,09,30,03,37,14.50
2013,09,30,03,38,17.70
2013,09,30,03,39,17.70
2013,09,30,03,40,16.10
2013,09,30,03,41,16.10
2013,09,30,03,42,9.60
2013,09,30,03,43,12.90
2013,09,30,03,44,12.90
2013,09,30,03,45,12.90
2013,09,30,03,46,12.90
2013,09,30,03,47,16.10
2013,09,30,03,48,19.30
2013,09,30,03,49,14.50
2013,09,30,03,50,12.90
2013,09,30,03,51,12.90
2013,09,30,03,52,16.10
2013,09,30,03,53,17.70
2013,09,30,03,54,19.30
2013,09,30,03,55,14.50
2013,09,30,03,56,9.60
2013,09,30,03,57,12.90
2013,09,30,03,58,11.30
2013,09,30,03,59,12.90
2013,09,30,04,00,12.90
2013,09,30,04,01,6.40
2013,09,30,04,02,9.60
2013,09,30,04,03,9.60
2013,09,30,04,04,8.10
2013,09,30,04,05,9.60
2013,09,30,04,06,6.40
2013,09,30,04,07,8.10
2013,09,30,04,08,4.80
2013,09,30,04,09,4.80
2013,09,30,04,10,9.60
2013,09,30,04,11,4.80
2013,09,30,04,12,4.80
2013,09,30,04,13,6.40
2013,09,30,04,14,6.40
2013,09,30,04,15,6.40
2013,09,30,04,16,6.40
2013,09,30,04,17,4.80
2013,09,30,04,18,4.80
2013,09,30,04,19,3.20
2013,09,30,04,20,3.20
2013,09,30,04,21,4.80
2013,09,30,04,22,8.10
2013,09,30,04,23,11.30
2013,09,30,04,24,12.90
2013,09,30,04,25,6.40
2013,09,30,04,26,9.60
2013,09,30,04,27,11.30
2013,09,30,04,28,9.60
2013,09,30,04,29,16.10
2013,09,30,04,30,16.10
2013,09,30,04,31,14.50
2013,09,30,04,32,9.60
2013,09,30,04,33,17.70
2013,09,30,04,34,12.90
2013,09,30,04,35,12.90
2013,09,30,04,36,6.40
2013,09,30,04,37,4.80
2013,09,30,04,38,6.40
2013,09,30,04,39,6.40
2013,09,30,04,40,3.20
2013,09,30,04,41,3.20
2013,09,30,04,42,3.20
2013,09,30,04,43,6.40
2013,09,30,04,44,11.30
2013,09,30,04,45,11.30
2013,09,30,04,46,6.40
2013,09,30,04,47,8.10
2013,09,30,04,48,11.30
2013,09,30,04,49,11.30
2013,09,30,04,50,6.40
2013,09,30,04,51,9.60
2013,09,30,04,52,9.60
2013,09,30,04,53,4.80
2013,09,30,04,54,9.60
2013,09,30,04,55,11.30
2013,09,30,04,56,4.80
2013,09,30,04,57,4.80
2013,09,30,04,58,6.40
2013,09,30,04,59,6.40
2013,09,30,05,00,12.90
2013,09,30,05,01,19.30
2013,09,30,05,02,11.30
2013,09,30,05,03,12.90
2013,09,30,05,04,14.50
2013,09,30,05,05,14.50
2013,09,30,05,06,11.30
2013,09,30,05,07,9.60
2013,09,30,05,08,4.80
2013,09,30,05,09,8.10
2013,09,30,05,10,12.90
2013,09,30,05,11,9.60
2013,09,30,05,12,6.40
2013,09,30,05,13,3.20
2013,09,30,05,14,6.40
2013,09,30,05,15,9.60
2013,09,30,05,16,8.10
2013,09,30,05,17,16.10
2013,09,30,05,18,12.90
2013,09,30,05,19,14.50
2013,09,30,05,20,9.60
2013,09,30,05,21,11.30
2013,09,30,05,22,9.60
2013,09,30,05,23,4.80
2013,09,30,05,24,9.60
2013,09,30,05,25,4.80
2013,09,30,05,26,3.20
2013,09,30,05,27,12.90
2013,09,30,05,28,11.30
2013,09,30,05,29,14.50
2013,09,30,05,30,12.90
2013,09,30,05,31,11.30
2013,09,30,05,32,11.30
2013,09,30,05,33,12.90
2013,09,30,05,34,16.10
2013,09,30,05,35,19.30
2013,09,30,05,36,14.50
2013,09,30,05,37,16.10
2013,09,30,05,38,14.50
2013,09,30,05,39,6.40
2013,09,30,05,40,8.10
2013,09,30,05,41,6.40
2013,09,30,05,42,4.80
2013,09,30,05,43,4.80
2013,09,30,05,44,4.80
2013,09,30,05,45,6.40
2013,09,30,05,46,6.40
2013,09,30,05,47,4.80
2013,09,30,05,48,4.80
2013,09,30,05,49,4.80
2013,09,30,05,50,6.40
2013,09,30,05,51,8.10
2013,09,30,05,52,11.30
2013,09,30,05,53,11.30
2013,09,30,05,54,6.40
2013,09,30,05,55,11.30
2013,09,30,05,56,6.40
2013,09,30,05,57,8.10
2013,09,30,05,58,8.10
2013,09,30,05,59,8.10
2013,09,30,06,00,3.20
2013,09,30,06,01,1.60
2013,09,30,06,02,1.60
2013,09,30,06,03,1.60
2013,09,30,06,04,3.20
2013,09,30,06,05,3.20
2013,09,30,06,06,1.60
2013,09,30,06,07,6.40
2013,09,30,06,08,6.40
2013,09,30,06,09,3.20
2013,09,30,06,10,4.80
2013,09,30,06,11,6.40
2013,09,30,06,12,8.10
2013,09,30,06,13,6.40
2013,09,30,06,14,6.40
2013,09,30,06,15,4.80
2013,09,30,06,16,1.60
2013,09,30,06,17,8.10
2013,09,30,06,18,9.60
2013,09,30,06,19,9.60
2013,09,30,06,20,3.20
2013,09,30,06,21,6.40
2013,09,30,06,22,6.40
2013,09,30,06,23,4.80
2013,09,30,06,24,3.20
2013,09,30,06,25,1.60
2013,09,30,06,26,1.60
2013,09,30,06,27,3.20
2013,09,30,06,28,3.20
2013,09,30,06,29,3.20
2013,09,30,06,30,4.80
2013,09,30,06,31,6.40
2013,09,30,06,32,6.40
2013,09,30,06,33,6.40
2013,09,30,06,34,4.80
2013,09,30,06,35,3.20
2013,09,30,06,36,8.10
2013,09,30,06,37,4.80
2013,09,30,06,38,3.20
2013,09,30,06,39,6.40
2013,09,30,06,40,4.80
2013,09,30,06,41,6.40
2013,09,30,06,42,6.40
2013,09,30,06,43,6.40
2013,09,30,06,44,8.10
2013,09,30,06,45,4.80
2013,09,30,06,46,11.30
2013,09,30,06,47,9.60
2013,09,30,06,48,14.50
2013,09,30,06,49,16.10
2013,09,30,06,50,12.90
2013,09,30,06,51,12.90
2013,09,30,06,52,6.40
2013,09,30,06,53,11.30
2013,09,30,06,54,14.50
2013,09,30,06,55,11.30
2013,09,30,06,56,4.80
2013,09,30,06,57,8.10
2013,09,30,06,58,8.10
2013,09,30,06,59,3.20
2013,09,30,07,00,4.80
2013,09,30,07,01,12.90
2013,09,30,07,02,11.30
2013,09,30,07,03,6.40
2013,09,30,07,04,11.30
2013,09,30,07,05,9.60
2013,09,30,07,06,4.80
2013,09,30,07,07,6.40
2013,09,30,07,08,4.80
2013,09,30,07,09,11.30
2013,09,30,07,10,6.40
2013,09,30,07,11,11.30
2013,09,30,07,12,8.10
2013,09,30,07,13,8.10
2013,09,30,07,14,6.40
2013,09,30,07,15,4.80
2013,09,30,07,16,4.80
2013,09,30,07,17,4.80
2013,09,30,07,18,4.80
2013,09,30,07,19,3.20
2013,09,30,07,20,4.80
2013,09,30,07,21,6.40
2013,09,30,07,22,6.40
2013,09,30,07,23,4.80
2013,09,30,07,24,11.30
2013,09,30,07,25,6.40
2013,09,30,07,26,6.40
2013,09,30,07,27,6.40
2013,09,30,07,28,3.20
2013,09,30,07,29,6.40
2013,09,30,07,30,8.10
2013,09,30,07,31,8.10
2013,09,30,07,32,6.40
2013,09,30,07,33,6.40
2013,09,30,07,34,4.80
2013,09,30,07,35,8.10
2013,09,30,07,36,6.40
2013,09,30,07,37,6.40
2013,09,30,07,38,8.10
2013,09,30,07,39,6.40
2013,09,30,07,40,3.20
2013,09,30,07,41,3.20
2013,09,30,07,42,4.80
2013,09,30,07,43,4.80
2013,09,30,07,44,4.80
2013,09,30,07,45,11.30
2013,09,30,07,46,8.10
2013,09,30,07,47,6.40
2013,09,30,07,48,6.40
2013,09,30,07,49,4.80
2013,09,30,07,50,6.40
2013,09,30,07,51,6.40
2013,09,30,07,52,12.90
2013,09,30,07,53,12.90
2013,09,30,07,54,14.50
2013,09,30,07,55,12.90
2013,09,30,07,56,12.90
2013,09,30,07,57,6.40
2013,09,30,07,58,6.40
2013,09,30,07,59,8.10
2013,09,30,08,00,1.60
2013,09,30,08,01,3.20
2013,09,30,08,02,3.20
2013,09,30,08,03,3.20
2013,09,30,08,04,6.40
2013,09,30,08,05,4.80
2013,09,30,08,06,3.20
2013,09,30,08,07,4.80
2013,09,30,08,08,4.80
2013,09,30,08,09,8.10
2013,09,30,08,10,6.40
2013,09,30,08,11,6.40
2013,09,30,08,12,6.40
2013,09,30,08,13,3.20
2013,09,30,08,14,3.20
2013,09,30,08,15,4.80
2013,09,30,08,16,6.40
2013,09,30,08,17,6.40
2013,09,30,08,18,4.80
2013,09,30,08,19,1.60
2013,09,30,08,20,3.20
2013,09,30,08,21,4.80
2013,09,30,08,22,3.20
2013,09,30,08,23,4.80
2013,09,30,08,24,3.20
2013,09,30,08,25,4.80
2013,09,30,08,26,11.30
2013,09,30,08,27,12.90
2013,09,30,08,28,17.70
2013,09,30,08,29,17.70
2013,09,30,08,30,9.60
2013,09,30,08,31,9.60
2013,09,30,08,32,12.90
2013,09,30,08,33,8.10
2013,09,30,08,34,16.10
2013,09,30,08,35,17.70
2013,09,30,08,36,14.50
2013,09,30,08,37,14.50
2013,09,30,08,38,14.50
2013,09,30,08,39,9.60
2013,09,30,08,40,6.40
2013,09,30,08,41,4.80
2013,09,30,08,42,4.80
2013,09,30,08,43,14.50
2013,09,30,08,44,6.40
2013,09,30,08,45,9.60
2013,09,30,08,46,11.30
2013,09,30,08,47,11.30
2013,09,30,08,48,12.90
2013,09,30,08,49,12.90
2013,09,30,08,50,12.90
2013,09,30,08,51,14.50
2013,09,30,08,52,12.90
2013,09,30,08,53,9.60
2013,09,30,08,54,9.60
2013,09,30,08,55,11.30
2013,09,30,08,56,20.90
2013,09,30,08,57,19.30
2013,09,30,08,58,19.30
2013,09,30,08,59,12.90
2013,09,30,09,00,16.10
2013,09,30,09,01,14.50
2013,09,30,09,02,9.60
2013,09,30,09,03,19.30
2013,09,30,09,04,16.10
2013,09,30,09,05,14.50
2013,09,30,09,06,12.90
2013,09,30,09,07,14.50
2013,09,30,09,08,12.90
2013,09,30,09,09,11.30
2013,09,30,09,10,12.90
2013,09,30,09,11,11.30
2013,09,30,09,12,9.60
2013,09,30,09,13,16.10
2013,09,30,09,14,14.50
2013,09,30,09,15,12.90
2013,09,30,09,16,19.30
2013,09,30,09,17,9.60
2013,09,30,09,18,9.60
2013,09,30,09,19,11.30
2013,09,30,09,20,27.40
2013,09,30,09,21,24.20
2013,09,30,09,22,11.30
2013,09,30,09,23,9.60
2013,09,30,09,24,11.30
2013,09,30,09,25,8.10
2013,09,30,09,26,14.50
2013,09,30,09,27,9.60
2013,09,30,09,28,11.30
2013,09,30,09,29,16.10
2013,09,30,09,30,16.10
2013,09,30,09,31,11.30
2013,09,30,09,32,12.90
2013,09,30,09,33,12.90
2013,09,30,09,34,16.10
2013,09,30,09,35,20.90
2013,09,30,09,36,22.50
2013,09,30,09,37,20.90
2013,09,30,09,38,24.20
2013,09,30,09,39,16.10
2013,09,30,09,40,12.90
2013,09,30,09,41,9.60
2013,09,30,09,42,9.60
2013,09,30,09,43,4.80
2013,09,30,09,44,6.40
2013,09,30,09,45,11.30
2013,09,30,09,46,3.20
2013,09,30,09,47,3.20
2013,09,30,09,48,4.80
2013,09,30,09,49,4.80
2013,09,30,09,50,4.80
2013,09,30,09,51,4.80
2013,09,30,09,52,6.40
2013,09,30,09,53,6.40
2013,09,30,09,54,6.40
2013,09,30,09,55,8.10
2013,09,30,09,56,8.10
2013,09,30,09,57,4.80
2013,09,30,09,58,4.80
2013,09,30,09,59,8.10
2013,09,30,10,00,11.30
2013,09,30,10,01,11.30
2013,09,30,10,02,11.30
2013,09,30,10,03,12.90
2013,09,30,10,04,11.30
2013,09,30,10,05,9.60
2013,09,30,10,06,4.80
2013,09,30,10,07,6.40
2013,09,30,10,08,3.20
2013,09,30,10,09,6.40
2013,09,30,10,10,6.40
2013,09,30,10,11,4.80
2013,09,30,10,12,4.80
2013,09,30,10,13,6.40
2013,09,30,10,14,6.40
2013,09,30,10,15,3.20
2013,09,30,10,16,3.20
2013,09,30,10,17,1.60
2013,09,30,10,18,4.80
2013,09,30,10,19,4.80
2013,09,30,10,20,3.20
2013,09,30,10,21,4.80
2013,09,30,10,22,6.40
2013,09,30,10,23,3.20
2013,09,30,10,24,6.40
2013,09,30,10,25,4.80
2013,09,30,10,26,8.10
2013,09,30,10,27,6.40
2013,09,30,10,28,6.40
2013,09,30,10,29,6.40
2013,09,30,10,30,1.60
2013,09,30,10,31,1.60
2013,09,30,10,32,1.60
2013,09,30,10,33,3.20
2013,09,30,10,34,4.80
2013,09,30,10,35,3.20
2013,09,30,10,36,3.20
2013,09,30,10,37,3.20
2013,09,30,10,38,3.20
2013,09,30,10,39,4.80
2013,09,30,10,40,4.80
2013,09,30,10,41,6.40
2013,09,30,10,42,6.40
2013,09,30,10,43,3.20
2013,09,30,10,44,1.60
2013,09,30,10,45,1.60
2013,09,30,10,46,1.60
2013,09,30,10,47,3.20
2013,09,30,10,48,3.20
2013,09,30,10,49,4.80
2013,09,30,10,50,3.20
2013,09,30,10,51,4.80
2013,09,30,10,52,4.80
2013,09,30,10,53,4.80
2013,09,30,10,54,3.20
2013,09,30,10,55,6.40
2013,09,30,10,56,4.80
2013,09,30,10,57,1.60
2013,09,30,10,58,1.60
2013,09,30,11,00,4.80
2013,09,30,11,01,6.40
2013,09,30,11,02,6.40
2013,09,30,11,03,4.80
2013,09,30,11,04,3.20
2013,09,30,11,05,6.40
2013,09,30,11,06,6.40
2013,09,30,11,07,4.80
2013,09,30,11,08,6.40
2013,09,30,11,09,8.10
2013,09,30,11,10,12.90
2013,09,30,11,11,8.10
2013,09,30,11,12,6.40
2013,09,30,11,13,4.80
2013,09,30,11,14,6.40
2013,09,30,11,15,4.80
2013,09,30,11,16,4.80
2013,09,30,11,17,8.10
2013,09,30,11,18,8.10
2013,09,30,11,19,8.10
2013,09,30,11,20,8.10
2013,09,30,11,21,9.60
2013,09,30,11,22,11.30
2013,09,30,11,23,9.60
2013,09,30,11,24,8.10
2013,09,30,11,25,6.40
2013,09,30,11,26,11.30
2013,09,30,11,27,11.30
2013,09,30,11,28,6.40
2013,09,30,11,29,8.10
2013,09,30,11,30,4.80
2013,09,30,11,31,9.60
2013,09,30,11,32,9.60
2013,09,30,11,33,6.40
2013,09,30,11,34,8.10
2013,09,30,11,35,8.10
2013,09,30,11,36,9.60
2013,09,30,11,37,11.30
2013,09,30,11,38,9.60
2013,09,30,11,39,8.10
2013,09,30,11,40,8.10
2013,09,30,11,41,6.40
2013,09,30,11,42,4.80
2013,09,30,11,43,4.80
2013,09,30,11,44,3.20
2013,09,30,11,45,4.80
2013,09,30,11,46,6.40
2013,09,30,11,47,8.10
2013,09,30,11,48,4.80
2013,09,30,11,49,4.80
2013,09,30,11,50,4.80
2013,09,30,11,51,3.20
2013,09,30,11,52,3.20
2013,09,30,11,53,1.60
2013,09,30,11,54,1.60
2013,09,30,11,55,3.20
2013,09,30,11,56,3.20
2013,09,30,11,57,4.80
2013,09,30,11,58,3.20
2013,09,30,11,59,3.20
2013,09,30,12,00,4.80
2013,09,30,12,01,4.80
2013,09,30,12,02,3.20
2013,09,30,12,03,1.60
2013,09,30,12,04,1.60
2013,09,30,12,05,1.60
2013,09,30,12,06,1.60
2013,09,30,12,07,3.20
2013,09,30,12,08,4.80
2013,09,30,12,09,3.20
2013,09,30,12,10,3.20
2013,09,30,12,11,1.60
2013,09,30,12,12,3.20
2013,09,30,12,13,3.20
2013,09,30,12,14,3.20
2013,09,30,12,15,3.20
2013,09,30,12,16,4.80
2013,09,30,12,17,6.40
2013,09,30,12,18,8.10
2013,09,30,12,19,8.10
2013,09,30,12,20,9.60
2013,09,30,12,21,12.90
2013,09,30,12,22,11.30
2013,09,30,12,23,8.10
2013,09,30,12,24,12.90
2013,09,30,12,25,14.50
2013,09,30,12,26,9.60
2013,09,30,12,27,17.70
2013,09,30,12,28,14.50
2013,09,30,12,29,14.50
2013,09,30,12,30,14.50
2013,09,30,12,31,12.90
2013,09,30,12,32,11.30
2013,09,30,12,33,4.80
2013,09,30,12,34,9.60
2013,09,30,12,35,8.10
2013,09,30,12,36,8.10
2013,09,30,12,37,8.10
2013,09,30,12,38,6.40
2013,09,30,12,39,8.10
2013,09,30,12,40,8.10
2013,09,30,12,41,9.60
2013,09,30,12,42,12.90
2013,09,30,12,43,12.90
2013,09,30,12,44,11.30
2013,09,30,12,45,17.70
2013,09,30,12,46,16.10
2013,09,30,12,47,14.50
2013,09,30,12,48,16.10
2013,09,30,12,49,16.10
2013,09,30,12,50,17.70
2013,09,30,12,51,16.10
2013,09,30,12,52,9.60
2013,09,30,12,53,8.10
2013,09,30,12,54,16.10
2013,09,30,12,55,20.90
2013,09,30,12,56,25.70
2013,09,30,12,57,25.70
2013,09,30,12,58,19.30
2013,09,30,12,59,17.70
2013,09,30,13,00,19.30
2013,09,30,13,01,17.70
2013,09,30,13,02,20.90
2013,09,30,13,03,19.30
2013,09,30,13,04,14.50
2013,09,30,13,05,17.70
2013,09,30,13,06,19.30
2013,09,30,13,07,20.90
2013,09,30,13,08,17.70
2013,09,30,13,09,20.90
2013,09,30,13,10,19.30
2013,09,30,13,11,22.50
2013,09,30,13,12,25.70
2013,09,30,13,13,22.50
2013,09,30,13,14,17.70
2013,09,30,13,15,17.70
2013,09,30,13,16,22.50
2013,09,30,13,17,20.90
2013,09,30,13,18,25.70
2013,09,30,13,19,20.90
2013,09,30,13,20,27.40
2013,09,30,13,21,27.40
2013,09,30,13,22,19.30
2013,09,30,13,23,27.40
2013,09,30,13,24,27.40
2013,09,30,13,25,17.70
2013,09,30,13,26,14.50
2013,09,30,13,27,25.70
2013,09,30,13,28,22.50
2013,09,30,13,29,22.50
2013,09,30,13,30,19.30
2013,09,30,13,31,20.90
2013,09,30,13,32,24.20
2013,09,30,13,33,27.40
2013,09,30,13,34,20.90
2013,09,30,13,35,27.40
2013,09,30,13,36,25.70
2013,09,30,13,37,25.70
2013,09,30,13,38,27.40
2013,09,30,13,39,17.70
2013,09,30,13,40,20.90
2013,09,30,13,41,12.90
2013,09,30,13,42,27.40
2013,09,30,13,43,27.40
2013,09,30,13,44,22.50
2013,09,30,13,45,17.70
2013,09,30,13,46,19.30
2013,09,30,13,47,17.70
2013,09,30,13,48,12.90
2013,09,30,13,49,19.30
2013,09,30,13,50,17.70
2013,09,30,13,51,17.70
2013,09,30,13,52,19.30
2013,09,30,13,53,16.10
2013,09,30,13,54,17.70
2013,09,30,13,55,16.10
2013,09,30,13,56,12.90
2013,09,30,13,57,19.30
2013,09,30,13,58,29.00
2013,09,30,13,59,24.20
2013,09,30,14,00,22.50
2013,09,30,14,01,24.20
2013,09,30,14,02,25.70
2013,09,30,14,03,22.50
2013,09,30,14,04,14.50
2013,09,30,14,05,24.20
2013,09,30,14,06,20.90
2013,09,30,14,07,20.90
2013,09,30,14,08,22.50
2013,09,30,14,09,22.50
2013,09,30,14,10,12.90
2013,09,30,14,11,17.70
2013,09,30,14,12,19.30
2013,09,30,14,13,25.70
2013,09,30,14,14,27.40
2013,09,30,14,15,20.90
2013,09,30,14,16,24.20
2013,09,30,14,17,24.20
2013,09,30,14,18,19.30
2013,09,30,14,19,16.10
2013,09,30,14,20,22.50
2013,09,30,14,21,16.10
2013,09,30,14,22,17.70
2013,09,30,14,23,12.90
2013,09,30,14,24,17.70
2013,09,30,14,25,19.30
2013,09,30,14,26,22.50
2013,09,30,14,27,17.70
2013,09,30,14,28,11.30
2013,09,30,14,29,11.30
2013,09,30,14,30,14.50
2013,09,30,14,31,19.30
2013,09,30,14,32,22.50
2013,09,30,14,33,20.90
2013,09,30,14,34,20.90
2013,09,30,14,35,14.50
2013,09,30,14,36,12.90
2013,09,30,14,37,19.30
2013,09,30,14,38,17.70
2013,09,30,14,39,20.90
2013,09,30,14,40,16.10
2013,09,30,14,41,20.90
2013,09,30,14,42,16.10
2013,09,30,14,43,17.70
2013,09,30,14,44,19.30
2013,09,30,14,45,19.30
2013,09,30,14,46,17.70
2013,09,30,14,47,17.70
2013,09,30,14,48,16.10
2013,09,30,14,49,12.90
2013,09,30,14,50,12.90
2013,09,30,14,51,9.60
2013,09,30,14,52,14.50
2013,09,30,14,53,16.10
2013,09,30,14,54,16.10
2013,09,30,14,55,20.90
2013,09,30,14,56,17.70
2013,09,30,14,57,19.30
2013,09,30,14,58,19.30
2013,09,30,14,59,19.30
2013,09,30,15,00,19.30
2013,09,30,15,01,14.50
2013,09,30,15,02,14.50
2013,09,30,15,03,19.30
2013,09,30,15,04,20.90
2013,09,30,15,05,19.30
2013,09,30,15,06,16.10
2013,09,30,15,07,20.90
2013,09,30,15,08,14.50
2013,09,30,15,09,24.20
2013,09,30,15,10,17.70
2013,09,30,15,11,16.10
2013,09,30,15,12,14.50
2013,09,30,15,13,16.10
2013,09,30,15,14,16.10
2013,09,30,15,15,17.70
2013,09,30,15,16,14.50
2013,09,30,15,17,24.20
2013,09,30,15,18,19.30
2013,09,30,15,19,27.40
2013,09,30,15,20,29.00
2013,09,30,15,21,22.50
2013,09,30,15,22,24.20
2013,09,30,15,23,24.20
2013,09,30,15,24,22.50
2013,09,30,15,25,22.50
2013,09,30,15,26,16.10
2013,09,30,15,27,14.50
2013,09,30,15,28,12.90
2013,09,30,15,29,17.70
2013,09,30,15,30,14.50
2013,09,30,15,31,11.30
2013,09,30,15,32,14.50
2013,09,30,15,33,22.50
2013,09,30,15,34,16.10
2013,09,30,15,35,19.30
2013,09,30,15,36,19.30
2013,09,30,15,37,14.50
2013,09,30,15,38,22.50
2013,09,30,15,39,20.90
2013,09,30,15,40,14.50
2013,09,30,15,41,16.10
2013,09,30,15,42,14.50
2013,09,30,15,43,14.50
2013,09,30,15,44,14.50
2013,09,30,15,45,12.90
2013,09,30,15,46,17.70
2013,09,30,15,47,19.30
2013,09,30,15,48,22.50
2013,09,30,15,49,19.30
2013,09,30,15,50,16.10
2013,09,30,15,51,16.10
2013,09,30,15,52,12.90
2013,09,30,15,53,11.30
2013,09,30,15,54,12.90
2013,09,30,15,55,16.10
2013,09,30,15,56,11.30
2013,09,30,15,57,9.60
2013,09,30,15,58,8.10
2013,09,30,15,59,8.10
2013,09,30,16,00,4.80
2013,09,30,16,01,8.10
2013,09,30,16,02,11.30
2013,09,30,16,03,12.90
2013,09,30,16,04,11.30
2013,09,30,16,05,8.10
2013,09,30,16,06,9.60
2013,09,30,16,07,9.60
2013,09,30,16,08,8.10
2013,09,30,16,09,12.90
2013,09,30,16,10,17.70
2013,09,30,16,11,16.10
2013,09,30,16,12,12.90
2013,09,30,16,13,24.20
2013,09,30,16,14,25.70
2013,09,30,16,15,24.20
2013,09,30,16,16,27.40
2013,09,30,16,17,19.30
2013,09,30,16,18,20.90
2013,09,30,16,19,19.30
2013,09,30,16,20,24.20
2013,09,30,16,21,24.20
2013,09,30,16,22,27.40
2013,09,30,16,23,25.70
2013,09,30,16,24,24.20
2013,09,30,16,25,24.20
2013,09,30,16,26,27.40
2013,09,30,16,27,16.10
2013,09,30,16,28,19.30
2013,09,30,16,29,19.30
2013,09,30,16,30,17.70
2013,09,30,16,31,14.50
2013,09,30,16,32,14.50
2013,09,30,16,33,19.30
2013,09,30,16,34,22.50
2013,09,30,16,35,16.10
2013,09,30,16,36,14.50
2013,09,30,16,37,12.90
2013,09,30,16,38,14.50
2013,09,30,16,39,16.10
2013,09,30,16,40,14.50
2013,09,30,16,41,20.90
2013,09,30,16,42,14.50
2013,09,30,16,43,14.50
2013,09,30,16,44,14.50
2013,09,30,16,45,14.50
2013,09,30,16,46,19.30
2013,09,30,16,47,17.70
2013,09,30,16,48,16.10
2013,09,30,16,49,12.90
2013,09,30,16,50,19.30
2013,09,30,16,51,19.30
2013,09,30,16,52,17.70
2013,09,30,16,53,17.70
2013,09,30,16,54,12.90
2013,09,30,16,55,11.30
2013,09,30,16,56,9.60
2013,09,30,16,57,16.10
2013,09,30,16,58,12.90
2013,09,30,16,59,11.30
2013,09,30,17,00,9.60
2013,09,30,17,01,16.10
2013,09,30,17,02,14.50
2013,09,30,17,03,14.50
2013,09,30,17,04,11.30
2013,09,30,17,05,8.10
2013,09,30,17,06,14.50
2013,09,30,17,07,17.70
2013,09,30,17,08,11.30
2013,09,30,17,09,11.30
2013,09,30,17,10,14.50
2013,09,30,17,11,6.40
2013,09,30,17,12,9.60
2013,09,30,17,13,11.30
2013,09,30,17,14,11.30
2013,09,30,17,15,11.30
2013,09,30,17,16,14.50
2013,09,30,17,17,12.90
2013,09,30,17,18,12.90
2013,09,30,17,19,11.30
2013,09,30,17,20,9.60
2013,09,30,17,21,9.60
2013,09,30,17,22,9.60
2013,09,30,17,23,8.10
2013,09,30,17,24,11.30
2013,09,30,17,25,9.60
2013,09,30,17,26,6.40
2013,09,30,17,27,14.50
2013,09,30,17,28,9.60
2013,09,30,17,29,12.90
2013,09,30,17,30,8.10
2013,09,30,17,31,17.70
2013,09,30,17,32,17.70
2013,09,30,17,33,19.30
2013,09,30,17,34,24.20
2013,09,30,17,35,16.10
2013,09,30,17,36,24.20
2013,09,30,17,37,20.90
2013,09,30,17,38,19.30
2013,09,30,17,39,11.30